GW5804 Weather Reports


time (UTC)temp
C
wind
direction
speed
KPH
gust
KPH
rain 1hr
cm
rain 24hr
cm
rain mn
cm
humidity
%
barometer
mb
20260503054831 15 80 0.0 1.6 0.00 0.00 0.00 77 1019.0
20260503054327 15 337 1.6 1.6 0.00 0.00 0.00 78 1018.9
20260503053825 14 20 1.6 1.6 0.00 0.00 0.00 80 1018.8
20260503053323 13 42 0.0 0.0 0.00 0.00 0.00 81 1018.8
20260503052819 13 9 1.6 1.6 0.00 0.00 0.00 82 1018.7
20260503052316 13 348 0.0 0.0 0.00 0.00 0.00 82 1018.5
20260503051812 13 330 0.0 1.6 0.00 0.00 0.00 82 1018.7
20260503051309 13 354 1.6 1.6 0.00 0.00 0.00 81 1018.7
20260503050806 13 284 0.0 0.0 0.00 0.00 0.00 81 1018.7
20260503050302 13 314 0.0 0.0 0.00 0.00 0.00 80 1018.7
20260503045800 13 287 0.0 0.0 0.00 0.00 0.00 79 1018.6
20260503045258 13 7 1.6 3.2 0.00 0.00 0.00 78 1018.7
20260503044753 13 324 1.6 1.6 0.00 0.00 0.00 77 1018.5
20260503044250 13 329 1.6 3.2 0.00 0.00 0.00 77 1018.5
20260503043748 13 354 3.2 3.2 0.00 0.00 0.00 77 1018.6
20260503043245 13 318 1.6 3.2 0.00 0.00 0.00 78 1018.5
20260503042740 12 2 3.2 3.2 0.00 0.00 0.00 79 1018.7
20260503042238 12 307 1.6 3.2 0.00 0.00 0.00 80 1018.5
20260503041733 12 300 0.0 0.0 0.00 0.00 0.00 80 1018.6
20260503041231 12 344 0.0 0.0 0.00 0.00 0.00 78 1018.6
20260503040729 12 334 0.0 0.0 0.00 0.00 0.00 77 1018.6
20260503040226 12 6 0.0 1.6 0.00 0.00 0.00 76 1018.6
20260503035723 12 276 0.0 0.0 0.00 0.00 0.00 76 1018.5
20260503035221 13 343 0.0 1.6 0.00 0.00 0.00 75 1018.6
20260503034718 13 351 1.6 1.6 0.00 0.00 0.00 74 1018.6
20260503034214 13 38 0.0 1.6 0.00 0.00 0.00 73 1018.6
20260503033712 13 332 0.0 1.6 0.00 0.00 0.00 73 1018.6
20260503033209 12 353 0.0 0.0 0.00 0.00 0.00 74 1018.7
20260503032708 13 315 0.0 0.0 0.00 0.00 0.00 73 1018.6
20260503032206 13 316 0.0 1.6 0.00 0.00 0.00 73 1018.6
20260503031702 13 316 0.0 1.6 0.00 0.00 0.00 74 1018.8
20260503031200 13 311 0.0 0.0 0.00 0.00 0.00 74 1018.7
20260503030656 13 306 0.0 0.0 0.00 0.00 0.00 73 1018.6
20260503030153 13 313 0.0 0.0 0.00 0.00 0.00 72 1018.8
20260503025650 13 315 0.0 1.6 0.00 0.00 0.00 71 1018.9
20260503025148 13 319 0.0 1.6 0.00 0.00 0.00 71 1018.8
20260503024644 12 320 1.6 1.6 0.00 0.00 0.00 73 1018.8
20260503024142 13 301 0.0 0.0 0.00 0.00 0.00 73 1018.8
20260503023639 13 310 0.0 0.0 0.00 0.00 0.00 73 1018.9
20260503023136 13 318 0.0 0.0 0.00 0.00 0.00 72 1019.0
20260503022632 13 348 1.6 3.2 0.00 0.00 0.00 72 1018.9
20260503022131 13 303 0.0 0.0 0.00 0.00 0.00 71 1018.9
20260503021628 13 309 0.0 0.0 0.00 0.00 0.00 71 1018.8
20260503021125 13 307 0.0 0.0 0.00 0.00 0.00 70 1019.1
20260503020622 13 305 0.0 0.0 0.00 0.00 0.00 69 1018.9
20260503020120 13 345 3.2 3.2 0.00 0.00 0.00 70 1018.8
20260503015616 13 311 1.6 1.6 0.00 0.00 0.00 69 1019.1
20260503015113 13 348 3.2 3.2 0.00 0.00 0.00 69 1019.0
20260503014609 13 354 3.2 3.2 0.00 0.00 0.00 69 1019.2
20260503014107 13 302 1.6 3.2 0.00 0.00 0.00 69 1019.0
20260503013604 13 357 3.2 4.8 0.00 0.00 0.00 69 1019.3
20260503013102 13 325 3.2 6.4 0.00 0.00 0.00 69 1019.1
20260503012559 13 341 3.2 3.2 0.00 0.00 0.00 71 1019.2
20260503012055 14 287 0.0 0.0 0.00 0.00 0.00 70 1019.3
20260503011552 14 6 3.2 3.2 0.00 0.00 0.00 69 1019.3
20260503011049 13 318 1.6 1.6 0.00 0.00 0.00 70 1019.3
20260503010545 13 312 0.0 0.0 0.00 0.00 0.00 72 1019.4
20260503010043 13 335 3.2 3.2 0.00 0.00 0.00 73 1019.5
20260503005540 13 7 3.2 4.8 0.00 0.00 0.00 72 1019.3
20260503005037 13 342 1.6 3.2 0.00 0.00 0.00 74 1019.4
20260503004533 13 327 0.0 0.0 0.00 0.00 0.00 74 1019.5
20260503004032 13 318 0.0 0.0 0.00 0.00 0.00 73 1019.5
20260503003528 14 313 0.0 0.0 0.00 0.00 0.00 72 1019.4
20260503003025 14 341 1.6 1.6 0.00 0.00 0.00 71 1019.6
20260503002522 13 333 3.2 3.2 0.00 0.00 0.00 70 1019.6
20260503002019 13 355 0.0 1.6 0.00 0.00 0.00 69 1019.8
20260503001515 13 322 0.0 0.0 0.00 0.00 0.00 68 1019.8
20260503001013 13 295 0.0 0.0 0.00 0.00 0.00 67 1019.5
20260503000510 14 283 0.0 0.0 0.00 0.00 0.00 67 1019.7
20260503000007 14 311 0.0 0.0 0.00 0.00 0.00 68 1019.7
20260502235503 14 314 0.0 0.0 0.00 0.00 0.00 68 1019.8
20260502235001 14 315 0.0 0.0 0.00 0.00 0.00 68 1019.8
20260502234457 14 322 0.0 0.0 0.00 0.00 0.00 68 1019.9
20260502233956 15 350 0.0 1.6 0.00 0.00 0.00 69 1019.9
20260502233455 15 353 0.0 1.6 0.00 0.00 0.00 69 1019.9
20260502232952 14 6 0.0 1.6 0.00 0.00 0.00 69 1020.0
20260502232449 14 319 0.0 0.0 0.00 0.00 0.00 69 1019.8
20260502231946 14 314 1.6 1.6 0.00 0.00 0.00 69 1020.1
20260502231443 15 317 0.0 0.0 0.00 0.00 0.00 69 1019.8
20260502230941 15 338 0.0 1.6 0.00 0.00 0.00 69 1020.0
20260502230439 15 330 0.0 0.0 0.00 0.00 0.00 68 1019.9
20260502225937 15 339 0.0 1.6 0.00 0.00 0.00 68 1020.0
20260502225432 15 334 1.6 1.6 0.00 0.00 0.00 68 1020.1
20260502224930 15 320 0.0 0.0 0.00 0.00 0.00 68 1020.1
20260502224425 15 353 1.6 3.2 0.00 0.00 0.00 67 1020.1
20260502223922 15 312 0.0 1.6 0.00 0.00 0.00 67 1020.0
20260502223421 15 330 1.6 1.6 0.00 0.00 0.00 68 1020.4
20260502222919 14 323 0.0 0.0 0.00 0.00 0.00 70 1020.2
20260502222416 15 32 0.0 0.0 0.00 0.00 0.00 70 1020.0
20260502221916 15 317 0.0 0.0 0.00 0.00 0.00 70 1020.2
20260502221413 15 316 0.0 0.0 0.00 0.00 0.00 70 1020.1
20260502220910 15 312 0.0 0.0 0.00 0.00 0.00 69 1020.2
20260502220406 15 337 1.6 1.6 0.00 0.00 0.00 69 1020.2
20260502215903 15 303 0.0 0.0 0.00 0.00 0.00 67 1020.5
20260502215400 15 346 4.8 4.8 0.00 0.00 0.00 66 1020.2
20260502214857 16 355 3.2 3.2 0.00 0.00 0.00 63 1020.1
20260502214353 16 323 1.6 3.2 0.00 0.00 0.00 61 1020.1
20260502213851 16 347 3.2 3.2 0.00 0.00 0.00 60 1020.1
20260502213348 16 318 3.2 3.2 0.00 0.00 0.00 58 1020.2
20260502212847 16 286 0.0 0.0 0.00 0.00 0.00 59 1020.1
20260502212345 16 341 1.6 1.6 0.00 0.00 0.00 59 1020.0
20260502211842 16 285 0.0 0.0 0.00 0.00 0.00 59 1020.0
20260502211337 16 86 0.0 1.6 0.00 0.00 0.00 60 1020.1
20260502210835 16 15 0.0 1.6 0.00 0.00 0.00 60 1020.0
20260502210332 16 77 1.6 1.6 0.00 0.00 0.00 59 1020.1
20260502205829 16 354 0.0 1.6 0.00 0.00 0.00 59 1020.0
20260502205325 16 335 3.2 4.8 0.00 0.00 0.00 58 1020.1
20260502204822 16 336 0.0 1.6 0.00 0.00 0.00 59 1020.2
20260502204319 16 324 0.0 1.6 0.00 0.00 0.00 59 1020.4
20260502203817 16 40 0.0 0.0 0.00 0.00 0.00 60 1020.4
20260502203315 16 357 0.0 0.0 0.00 0.00 0.00 58 1020.2
20260502202814 17 312 3.2 3.2 0.00 0.00 0.00 57 1020.1
20260502202313 16 359 1.6 3.2 0.00 0.00 0.00 58 1020.2
20260502201810 16 339 3.2 3.2 0.00 0.00 0.00 59 1020.4
20260502201306 16 347 0.0 1.6 0.00 0.00 0.00 60 1020.1
20260502200802 16 325 0.0 0.0 0.00 0.00 0.00 59 1020.2
20260502200258 16 345 1.6 1.6 0.00 0.00 0.00 59 1020.2
20260502195757 16 353 0.0 1.6 0.00 0.00 0.00 59 1020.2
20260502195253 16 349 1.6 3.2 0.00 0.00 0.00 59 1020.0
20260502194749 17 10 1.6 3.2 0.00 0.00 0.00 58 1020.0
20260502194247 17 314 0.0 1.6 0.00 0.00 0.00 57 1020.0
20260502193742 17 323 0.0 1.6 0.00 0.00 0.00 57 1020.5
20260502193240 17 347 0.0 0.0 0.00 0.00 0.00 57 1020.1
20260502192740 17 314 0.0 0.0 0.00 0.00 0.00 56 1020.2
20260502192238 17 313 0.0 1.6 0.00 0.00 0.00 55 1020.0
20260502191734 17 279 0.0 0.0 0.00 0.00 0.00 55 1019.9
20260502191232 17 295 1.6 4.8 0.00 0.00 0.00 55 1020.0
20260502190729 17 318 0.0 1.6 0.00 0.00 0.00 54 1020.1
20260502190227 18 307 0.0 0.0 0.00 0.00 0.00 53 1020.1
20260502185727 18 299 1.6 1.6 0.00 0.00 0.00 52 1020.0
20260502185223 17 330 1.6 1.6 0.00 0.00 0.00 52 1020.0
20260502184720 17 331 1.6 3.2 0.00 0.00 0.00 54 1019.9
20260502184215 17 335 3.2 4.8 0.00 0.00 0.00 54 1019.9
20260502183712 17 307 0.0 0.0 0.00 0.00 0.00 55 1019.7
20260502183208 18 307 0.0 0.0 0.00 0.00 0.00 54 1019.5
20260502182704 18 299 0.0 0.0 0.00 0.00 0.00 53 1019.5
20260502182159 18 321 1.6 1.6 0.00 0.00 0.00 54 1019.5
20260502181657 18 310 0.0 1.6 0.00 0.00 0.00 54 1019.3
20260502181156 18 307 0.0 1.6 0.00 0.00 0.00 53 1019.5
20260502180652 18 305 0.0 0.0 0.00 0.00 0.00 53 1019.5
20260502180150 18 305 0.0 0.0 0.00 0.00 0.00 52 1019.4
20260502170114 21 288 0.0 1.6 0.00 0.00 0.00 48 1019.4
20260502164100 22 284 0.0 0.0 0.00 0.00 0.00 45 1019.5
20260502163556 22 264 1.6 3.2 0.00 0.00 0.00 44 1019.5
20260502163053 22 311 4.8 9.7 0.00 0.00 0.00 44 1019.6
20260502162550 22 282 1.6 3.2 0.00 0.00 0.00 44 1019.5
20260502162047 22 302 0.0 0.0 0.00 0.00 0.00 44 1019.5
20260502161544 22 297 1.6 3.2 0.00 0.00 0.00 45 1019.7
20260502161042 22 289 0.0 1.6 0.00 0.00 0.00 44 1019.9
20260502160540 22 316 0.0 1.6 0.00 0.00 0.00 45 1019.7
20260502151947 24 292 1.6 1.6 0.00 0.00 0.00 41 1020.1
20260502151443 23 276 1.6 1.6 0.00 0.00 0.00 41 1020.4
20260502150941 24 283 1.6 1.6 0.00 0.00 0.00 41 1020.1
20260502150438 24 272 0.0 0.0 0.00 0.00 0.00 41 1020.0
20260502130323 23 220 1.6 3.2 0.00 0.00 0.00 43 1021.7
20260502123809 22 228 1.6 3.2 0.00 0.00 0.00 44 1021.8
20260502123306 23 196 6.4 9.7 0.00 0.00 0.00 45 1021.7
20260502122802 23 205 1.6 3.2 0.00 0.00 0.00 45 1022.0
20260502122258 23 265 3.2 4.8 0.00 0.00 0.00 43 1022.0
20260502121757 23 254 3.2 4.8 0.00 0.00 0.00 43 1022.2
20260502121254 23 238 1.6 3.2 0.00 0.00 0.00 45 1022.0
20260502120751 23 286 1.6 3.2 0.00 0.00 0.00 43 1022.1
20260502120247 24 258 1.6 3.2 0.00 0.00 0.00 41 1022.0
20260502115745 23 252 1.6 1.6 0.00 0.00 0.00 42 1022.1
20260502115242 23 296 3.2 4.8 0.00 0.00 0.00 43 1022.4
20260502114737 23 221 0.0 1.6 0.00 0.00 0.00 43 1022.2
20260502114235 23 236 1.6 3.2 0.00 0.00 0.00 43 1022.3
20260502113732 22 239 0.0 1.6 0.00 0.00 0.00 42 1022.3
20260502113230 22 272 0.0 1.6 0.00 0.00 0.00 44 1022.4
20260502112728 22 269 3.2 4.8 0.00 0.00 0.00 43 1022.5
20260502112225 22 216 1.6 3.2 0.00 0.00 0.00 44 1022.7
20260502111722 22 227 1.6 3.2 0.00 0.00 0.00 45 1022.7
20260502111220 22 178 1.6 1.6 0.00 0.00 0.00 45 1022.7
20260502110717 22 212 3.2 6.4 0.00 0.00 0.00 45 1022.8
20260502110215 22 6 0.0 1.6 0.00 0.00 0.00 46 1022.9
20260502105712 22 328 3.2 4.8 0.00 0.00 0.00 46 1022.9
20260502105209 22 241 3.2 3.2 0.00 0.00 0.00 45 1023.1
20260502104707 22 265 1.6 4.8 0.00 0.00 0.00 45 1023.1
20260502104204 22 328 0.0 1.6 0.00 0.00 0.00 44 1023.3
20260502103701 22 181 3.2 3.2 0.00 0.00 0.00 44 1023.1
20260502103159 22 241 1.6 3.2 0.00 0.00 0.00 41 1023.2
20260502102655 22 264 1.6 3.2 0.00 0.00 0.00 42 1023.2
20260502102152 22 211 0.0 3.2 0.00 0.00 0.00 42 1023.2
20260502101650 22 271 1.6 1.6 0.00 0.00 0.00 43 1023.3
20260502101148 22 282 3.2 6.4 0.00 0.00 0.00 42 1023.4
20260502100646 22 251 0.0 0.0 0.00 0.00 0.00 43 1023.3
20260502100144 22 307 0.0 1.6 0.00 0.00 0.00 43 1023.3
20260502091118 21 219 1.6 3.2 0.00 0.00 0.00 45 1023.8
20260502090615 21 254 0.0 1.6 0.00 0.00 0.00 48 1023.9
20260502090112 21 285 1.6 1.6 0.00 0.00 0.00 49 1024.0
20260502071515 18 317 1.6 1.6 0.00 0.00 0.00 49 1024.7
20260502071014 18 346 0.0 0.0 0.00 0.00 0.00 51 1024.6
20260502070511 18 315 0.0 1.6 0.00 0.00 0.00 52 1024.7
20260502070009 17 315 0.0 0.0 0.00 0.00 0.00 51 1024.7
20260502065508 17 90 0.0 0.0 0.00 0.00 0.00 51 1024.8
20260502065005 16 315 1.6 3.2 0.00 0.00 0.00 53 1024.8
20260502064503 16 13 1.6 3.2 0.00 0.00 0.00 56 1024.9
20260502064000 16 356 1.6 3.2 0.00 0.00 0.00 58 1024.8
20260502063458 16 288 0.0 0.0 0.00 0.00 0.00 60 1024.7
20260502062955 15 347 0.0 1.6 0.00 0.00 0.00 60 1025.0
20260502062452 15 21 0.0 1.6 0.00 0.00 0.00 62 1025.0
20260502061951 15 342 0.0 1.6 0.00 0.00 0.00 63 1025.0
20260502061448 15 2 1.6 1.6 0.00 0.00 0.00 68 1024.9
20260502060944 14 25 0.0 0.0 0.00 0.00 0.00 69 1025.0
20260502060439 14 323 1.6 3.2 0.00 0.00 0.00 70 1025.0
20260502055936 14 10 3.2 4.8 0.00 0.00 0.00 70 1025.1